Location: Castiglione Fibocchi
(43.5333°N, 11.7667°E)
Time: 17:42:31
(UTC+00:00)

ADEOS - Pass Details

Date: 15 August 2020
Orbit: 792 x 795 km, 98.9° (Epoch: 18 September)

Event Time Altitude Azimuth Distance (km) Brightness Sun altitude
Rises 03:23:51 0° 17° (NNE) 3,304 7.6 -9.7°
Reaches altitude 10° 03:26:13 10° 20° (NNE) 2,370 6.8 -9.4°
Maximum altitude 03:31:24 63° 102° (ESE) 884 4.1 -8.5°
Drops below altitude 10° 03:36:33 10° 183° (S) 2,351 5.7 -7.7°
Sets 03:38:53 0° 187° (S) 3,276 6.4 -7.3°
